Location: Grand Moustoir
(47.8355°N, 3.3120°W)
Time: 09:03:18
(UTC+00:00)

STARLINK-37 - Pass Details

Date: 20 January 2020
Orbit: 528 x 531 km, 53.0° (Epoch: 28 February)

Event Time Altitude Azimuth Distance (km) Brightness Sun altitude
Exits shadow 05:05:53 11° 160° (SSE) 1,694 6.3 -27.8°
Drops below altitude 10° 05:09:59 10° 97° (E) 1,769 7.2 -27.2°
Enters shadow 06:11:44 -62° 237° (WSW) 11,806 10.3 -16.9°
Maximum altitude 06:46:15 70° 148° (SSE) 563 3.8 -11.3°
